Location: Czu?�w
(50.1404°N, 18.9919°E)
Time: 03:41:54
(UTC+00:00)

NOSS 3-3 (C) - Pass Details

Date: 27 October 2020
Orbit: 825 x 1387 km, 63.4° (Epoch: 22 November)

Event Time Altitude Azimuth Distance (km) Brightness Sun altitude
Rises 17:44:30 0° 209° (SSW) 3,418 7.2 -22.3°
Reaches altitude 10° 17:46:53 10° 206° (SSW) 2,528 6.4 -22.7°
Maximum altitude 17:52:38 64° 126° (SE) 1,043 3.8 -23.6°
Enters shadow 17:54:22 47° 68° (ENE) 1,277 4.2 -23.8°
